Regional Weather Roundup
Issued by NWS

Home | Current Version | Previous Version | Graphics & Text | Print | Product List | Glossary On
Versions: 1 2 3 4 5 6 7 8 9 10 11 12 13 14 15 16 17 18 19 20 21 22 23 24 25 26 27 28 29 30 31 32 33 34 35 36 37 38 39 40 41 42 43 44 45 46 47 48 49 50
000
ASUS45 KTFX 240610
RWRMT
MONTANA REGIONAL WEATHER ROUNDUP
NATIONAL WEATHER SERVICE GREAT FALLS MT
1200 AM MDT SUN MAY 24 2015

NOTE: "FAIR" INDICATES FEW OR NO CLOUDS BELOW 12000 FEET WITH NO
SIGNIFICANT WEATHER AND/OR OBSTRUCTIONS TO VISIBILITY.

MTZ001>007-043-240700-
WEST OF THE DIVIDE

CITY           SKY/WX    TMP DP  RH WIND       PRES   REMARKS
KALISPELL      CLEAR     46  40  79 NW3       30.08R
MISSOULA       CLOUDY    50  45  83 W5        30.10R
BUTTE          LGT RAIN  48  42  80 NW5       30.11S
MULLAN PASS    CLEAR     49  34  56 E6        30.14F
DEER LODGE       N/A     48  43  81 NW8       30.14F
EUREKA           N/A     54  32  43 CALM      30.07R
HAMILTON         N/A     55  41  58 N9        30.06F
LIBBY            N/A     57  37  47 S5        30.06S
RONAN            N/A     48  41  77 CALM      30.11S
$$

MTZ008-052>055-240700-
SOUTHWEST MONTANA

CITY           SKY/WX    TMP DP  RH WIND       PRES   REMARKS
BOZEMAN        CLOUDY    48  46  93 S5        30.08S
DILLON         CLOUDY    47  43  86 NE9       30.07S
W YELLOWSTONE  PTCLDY    37  37 100 NE3       30.08S
$$

MTZ009-010-012-014-046-048-049-054-240700-
EAST SLOPES AND CENTRAL MONTANA

CITY           SKY/WX    TMP DP  RH WIND       PRES   REMARKS
CUT BANK       CLEAR     47  41  80 NE3       30.13R
GREAT FALLS    CLOUDY    50  47  89 S3        30.11F
MALMSTROM AFB  CLOUDY    52  50  93 W3        30.12S
HELENA         CLOUDY    51  45  79 W7        30.10S
CONRAD           N/A     48  48 100 W1        30.13S
$$

MTZ011-013-016-021-045-047-050-051-240700-
NORTH CENTRAL MONTANA

CITY           SKY/WX    TMP DP  RH WIND       PRES   REMARKS
HAVRE          PTCLDY    48  41  76 S5        30.10S
LEWISTOWN      PTCLDY    46  42  86 E3        30.12R
N BAR RANCH    CLOUDY    46  43  87 CALM      30.14S
CHINOOK          N/A     52  45  76 CALM      30.11R
FORT BENTON      N/A     54  50  87 CALM      30.12S
$$

MTZ017>020-022>027-061-062-240700-
NORTHEAST MONTANA

CITY           SKY/WX    TMP DP  RH WIND       PRES   REMARKS
GLASGOW        CLEAR     51  40  65 CALM      30.10S
JORDAN           N/A     53  46  77 CALM      30.10S
SIDNEY         PTCLDY    52  45  76 CALM      30.11R
WOLF POINT     CLEAR     47  41  80 CALM      30.11R
MALTA            N/A     50  40  68 CALM      30.07S
PLENTYWOOD       N/A     59  39  47 CALM      30.11R
POPLAR           N/A     55  45  67 CALM      30.11S
SCOBEY           N/A     49  31  50 CALM      30.10R
$$

MTZ028>42-056>058-240700-
SOUTHCENTRAL AND SOUTHEAST MONTANA

CITY           SKY/WX    TMP DP  RH WIND       PRES   REMARKS
BAKER          MOCLDY    48  46  93 NE8       30.09F
BILLINGS       CLOUDY    52  45  77 NE12      30.07F
LIVINGSTON     RAIN      50  47  89 E14       30.08R FOG
MILES CITY     CLOUDY    52  50  93 NE9       30.08R
BIG TIMBER       N/A     48  48 100 E3        30.10R
EKALAKA          N/A     49  44  83 E5        30.04S
FORSYTH          N/A     52  52 100 NE5       30.07F
LAUREL           N/A     52  43  71 N5        30.05F
ROUNDUP          N/A     51  42  71 CALM      30.01R
$$

REGIONAL REPORTS...DAKOTAS

CITY           SKY/WX    TMP DP  RH WIND       PRES   REMARKS
WILLISTON      PTCLDY    49  42  77 CALM      30.10R
MINOT          PTCLDY    56  46  69 SW8       30.09S
DICKINSON      MOCLDY    48  45  89 SE7       30.09S
BEACH          CLOUDY    50  50 100 E3        30.11F
CROSBY         FAIR      50  48  93 SW6       30.10S
WATFORD CITY   FAIR      50  43  76 CALM      30.09S
BISMARCK       CLOUDY    55  51  86 SE5       30.11S
GRAND FORKS    MOCLDY    51  45  79 CALM      30.09S
FARGO          PTCLDY    55  48  77 CALM      30.10S
BUFFALO SD       N/A     53  48  83 E9        30.01S
RAPID CITY     LGT RAIN  53  52  96 E8        30.01F FOG
$$

REGIONAL REPORTS...WYOMING/IDAHO/WASHINGTON

CITY           SKY/WX    TMP DP  RH WIND       PRES   REMARKS
GILLETTE       CLOUDY    50  47  89 N7        30.01F
SHERIDAN       CLOUDY    50  47  89 W6        30.05S
BUFFALO WY     CLOUDY    48  46  93 NW6       30.06F
CODY           CLOUDY    48  43  81 NW14      30.05F
YELLOWSTONE LA   N/A     40  33  76 VRB5      30.11S
IDAHO FALLS    PTCLDY    46  45  96 CALM      30.00S FOG
SALMON         CLOUDY    52  48  87 SE3       30.03R
BOISE          PTCLDY    60  51  72 S12       29.90R
SPOKANE        MOCLDY    67  48  50 S9        29.99R
$$

REGIONAL REPORTS...ALBERTA

CITY           SKY/WX    TMP DP  RH WIND       PRES   REMARKS
EDMONTON       CLEAR     57  36  44 SE6       30.06S
CALGARY        CLEAR     61  28  29 SW3       30.11S
LETHBRIDGE     CLEAR     46  37  71 S10       30.11R
MEDICINE HAT   CLEAR     54  36  50 CALM      30.10R
$$

REGIONAL REPORTS...SASKATCHEWAN

CITY           SKY/WX    TMP DP  RH WIND       PRES   REMARKS
SWIFT CURRENT  CLEAR     52  32  46 S9        30.11R
REGINA         CLEAR     52  32  46 W2        30.09S
SASKATOON      PTCLDY    57  36  44 N2        30.08S
$$


USA.gov is the U.S. government's official web portal to all federal, state and local government web resources and services.